Vancouver, WA

7:06 PM PST on February 19, 2017 (GMT -0800)
Pearson

Weather History for KVUO - January, 2013

Change the Weather History Date:

Monday, January 14, 2013

  Actual Average Record
Temperature  
Mean Temperature 32 °F 42 °F  
Max Temperature 34 °F 47 °F 59 °F (2011)
Min Temperature 29 °F 36 °F -1 °F (1909)
Degree Days  
Heating Degree Days 33    
Month to date heating degree days 406  
Since 1 July heating degree days 1954  
Cooling Degree Days 0    
Month to date cooling degree days 0  
Year to date cooling degree days 0  
Moisture  
Dew Point 28 °F    
Average Humidity 84    
Maximum Humidity 96    
Minimum Humidity 72    
Precipitation  
Precipitation 0.05 in 0.17 in 1.73 in (1968)
Month to date precipitation 0.98 2.73  
Year to date precipitation 0.98 2.73  
Snow  
Snow 0.00 in - - ()
Month to date snowfall 0.0  
Snow Depth 0.00 in    
Sea Level Pressure  
Sea Level Pressure 30.56 in    
Wind  
Wind Speed 2 mph (ESE)    
Max Wind Speed 7 mph    
Max Gust Speed 8 mph    
Visibility 4 miles    
Events Rain , Snow    
T = Trace of Precipitation, MM = Missing Value Source: NWS Daily Summary

Daily Weather History Graph

Daily Weather History Graph

Search for Another Location

Airport or City:

Trip Planner

Search our weather history database for the weather conditions in past years. The results will help you decide how hot, cold, wet, or windy it might be!

Date:

Astronomy

Jan. 14, 2013 Rise Set
Actual Time 7:47 AM PST 4:52 PM PST
Civil Twilight 7:14 AM PST 5:25 PM PST
Nautical Twilight 6:37 AM PST 6:02 PM PST
Astronomical Twilight 6:02 AM PST 6:38 PM PST
Moon 9:11 AM PST (1/14) 8:58 PM PST (1/14)
Length of Visible Light 10h 11m
Length of Day
9h 04m
Waxing Crescent, 12% of the Moon is Illuminated
Jan 14
Waxing Crescent
Jan 18
First Quarter
Jan 26
Full
Feb 3
Last Quarter
Feb 9
New

Hourly Weather History & Observations

Time (PST) Temp. Windchill Dew Point Humidity Pressure Visibility Wind Dir Wind Speed Gust Speed Precip Events Conditions
12:53 AM 28.9 °F - 25.0 °F 85% 30.52 in 6.0 mi Calm Calm - N/A   Overcast
1:53 AM 28.9 °F - 25.0 °F 85% 30.53 in 6.0 mi Calm Calm - N/A   Overcast
2:53 AM 30.0 °F - 25.0 °F 82% 30.53 in 6.0 mi Calm Calm - N/A   Haze
3:53 AM 30.0 °F - 25.0 °F 82% 30.52 in 6.0 mi Calm Calm - N/A   Haze
4:53 AM 30.0 °F - 25.0 °F 82% 30.53 in 7.0 mi Calm Calm - N/A   Overcast
5:53 AM 30.0 °F 26.5 °F 25.0 °F 82% 30.53 in 7.0 mi NE 3.5 mph - N/A   Overcast
6:53 AM 30.9 °F - 26.1 °F 82% 30.54 in 8.0 mi Calm Calm - N/A   Overcast
7:53 AM 30.9 °F 27.5 °F 25.0 °F 79% 30.56 in 8.0 mi Variable 3.5 mph - N/A   Overcast
8:53 AM 30.0 °F 25.2 °F 25.0 °F 82% 30.57 in 5.0 mi SSE 4.6 mph - N/A   Haze
9:53 AM 30.9 °F - 25.0 °F 79% 30.57 in 5.0 mi Calm Calm - N/A   Haze
11:53 AM 32.0 °F - 26.1 °F 79% 30.56 in 5.0 mi Calm Calm - N/A   Haze
12:36 PM 32.0 °F 28.7 °F 26.6 °F 80% 30.54 in 2.5 mi SSE 3.5 mph - 0.00 in Snow Light Snow
12:53 PM 32.0 °F - 27.0 °F 82% 30.55 in 2.5 mi Calm Calm - 0.00 in Snow Light Snow
1:21 PM 32.0 °F - 26.6 °F 80% 30.55 in 1.5 mi Calm Calm - 0.01 in Snow Light Snow
1:30 PM 30.2 °F - 26.6 °F 86% 30.55 in 1.8 mi Calm Calm - 0.01 in Snow Light Snow
1:34 PM 30.2 °F - 26.6 °F 86% 30.55 in 2.0 mi Calm Calm - 0.01 in Snow Light Snow
1:46 PM 32.0 °F - 28.4 °F 87% 30.56 in 1.5 mi Calm Calm - 0.01 in Snow Light Snow
2:17 PM 32.0 °F - 28.4 °F 87% 30.57 in 2.5 mi Calm Calm - 0.00 in Snow Light Snow
2:42 PM 32.0 °F 28.7 °F 28.4 °F 87% 30.56 in 3.0 mi SE 3.5 mph - 0.00 in   Overcast
2:53 PM 32.0 °F 28.7 °F 28.0 °F 85% 30.56 in 4.0 mi ESE 3.5 mph - 0.00 in   Overcast
3:02 PM 32.0 °F 28.7 °F 28.4 °F 87% 30.57 in 4.0 mi ESE 3.5 mph - N/A   Overcast
3:11 PM 32.0 °F - 28.4 °F 87% 30.56 in 5.0 mi Calm Calm - N/A   Overcast
3:42 PM 32.0 °F 28.7 °F 28.4 °F 87% 30.56 in 2.5 mi ESE 3.5 mph - N/A   Overcast
3:53 PM 32.0 °F 27.5 °F 30.0 °F 92% 30.56 in 1.5 mi ESE 4.6 mph - N/A   Overcast
4:05 PM 32.0 °F 28.7 °F 30.2 °F 93% 30.56 in 2.5 mi ESE 3.5 mph - 0.01 in   Overcast
4:12 PM 32.0 °F 26.4 °F 30.2 °F 93% 30.56 in 4.0 mi SE 5.8 mph - 0.01 in   Overcast
4:22 PM 32.0 °F 27.5 °F 28.4 °F 87% 30.56 in 2.5 mi SE 4.6 mph - 0.01 in Snow Light Snow
4:43 PM 32.0 °F 28.7 °F 30.2 °F 93% 30.56 in 3.0 mi ESE 3.5 mph - 0.01 in   Overcast
4:53 PM 32.0 °F 28.7 °F 30.0 °F 92% 30.57 in 4.0 mi SE 3.5 mph - 0.01 in   Overcast
5:00 PM 32.0 °F 28.7 °F 30.2 °F 93% 30.56 in 3.0 mi ESE 3.5 mph - 0.00 in   Overcast
5:07 PM 32.0 °F 28.7 °F 30.2 °F 93% 30.56 in 3.0 mi ESE 3.5 mph - 0.00 in Rain Light Freezing Rain
5:14 PM 32.0 °F 27.5 °F 30.2 °F 93% 30.56 in 3.0 mi ESE 4.6 mph - 0.00 in Rain Light Freezing Rain
5:29 PM 33.8 °F 30.8 °F 30.2 °F 87% 30.56 in 3.0 mi East 3.5 mph - 0.00 in Rain Light Freezing Rain
5:53 PM 32.0 °F 27.5 °F 30.0 °F 92% 30.56 in 4.0 mi ESE 4.6 mph - 0.00 in Rain Light Freezing Rain
6:29 PM 33.8 °F 30.8 °F 30.2 °F 87% 30.56 in 3.0 mi SE 3.5 mph - 0.00 in   Overcast
6:53 PM 33.1 °F 28.7 °F 30.9 °F 92% 30.57 in 2.5 mi East 4.6 mph - 0.00 in   Overcast
7:53 PM 33.1 °F 30.0 °F 30.9 °F 92% 30.58 in 2.5 mi East 3.5 mph - 0.01 in   Overcast
8:45 PM 33.8 °F 30.8 °F 30.2 °F 87% 30.57 in 3.0 mi ESE 3.5 mph - 0.01 in   Overcast
8:53 PM 33.1 °F - 30.9 °F 92% 30.58 in 3.0 mi Calm Calm - 0.01 in   Overcast
9:53 PM 33.1 °F 30.0 °F 32.0 °F 96% 30.57 in 8.0 mi ESE 3.5 mph - N/A   Overcast
10:53 PM 33.1 °F - 32.0 °F 96% 30.57 in 7.0 mi Calm Calm - N/A   Overcast
11:53 PM 34.0 °F - 32.0 °F 92% 30.58 in 5.0 mi Calm Calm - 0.01 in   Overcast